"startDT [UTC]","vpos","CH4 [ppm]","stdev(CH4) [ppm]","CO2 [ppm]","stdev(CO2) [ppm]","H2O [ppm]","stdev(H2O)","p_LGR [torr]","T_LGR [C]","mt1_LGR [us]","mt2_LGR [us]","T_ECpre [C]","T_EC1 [C]","T_EC2 [C]","p_inlet [hPa]","p_in [hPa]","p_out [hPa]","T_inlet [C]","RH_inlet [%]","dwpt_inlet [C]","T_vent [C]","RH_vent [%]","dwpt_vent [C]","flow_vent [l min-1]","flow_inlet [l min-1]","dwpt_sample [C]","T_room [C]"
2013-06-07 00:00:00,0.0,1.8990,0.0010,408.02,0.44,119.2,42.9,138.19,23.76,24.61,36.32,0.04,-272.75,-272.76,-34,549,-911,17.0,22.7,-4.5,17.4,22.9,-4.0,5.73,2.41,-25.9,23.6
2013-06-07 00:01:00,0.0,1.8991,0.0008,408.10,0.39,129.9,42.4,138.20,23.77,24.61,36.33,0.04,-272.75,-272.75,-34,549,-912,17.0,22.8,-4.4,17.4,23.1,-3.9,5.73,2.43,-25.9,23.5
2013-06-07 00:02:00,0.0,1.8988,0.0010,407.99,0.46,118.1,41.6,138.20,23.77,24.62,36.33,0.04,-272.75,-272.76,-34,549,-911,17.0,22.7,-4.5,17.4,22.9,-4.0,5.73,2.40,-25.9,23.6
2013-06-07 00:03:00,0.0,1.8989,0.0009,408.04,0.38,125.8,36.2,138.20,23.77,24.62,36.32,0.04,-272.76,-272.76,-34,549,-911,17.0,22.7,-4.5,17.4,22.9,-4.0,5.73,2.35,-25.9,23.6
2013-06-07 00:04:00,0.0,1.8987,0.0009,408.05,0.43,125.2,40.5,138.20,23.77,24.62,36.32,0.04,-272.75,-272.76,-34,549,-911,17.0,22.6,-4.5,17.4,22.9,-4.0,5.73,2.34,-25.9,23.6
2013-06-07 00:05:00,0.0,1.8992,0.0011,408.00,0.51,119.0,40.2,138.20,23.77,24.62,36.33,0.04,-272.75,-272.76,-34,549,-911,17.0,22.7,-4.4,17.4,22.9,-4.0,5.73,2.38,-25.9,23.6
2013-06-07 00:06:00,0.0,1.8990,0.0011,407.99,0.37,127.3,43.3,138.20,23.78,24.62,36.33,0.04,-272.76,-272.76,-34,549,-911,17.1,22.7,-4.4,17.5,23.0,-3.9,5.73,2.42,-25.9,23.6
2013-06-07 00:07:00,0.0,1.8988,0.0009,408.12,0.46,128.8,41.6,138.19,23.79,24.62,36.32,0.04,-272.75,-272.75,-34,549,-911,17.1,22.6,-4.4,17.4,22.9,-4.0,5.73,2.43,-25.8,23.6
2013-06-07 00:08:00,0.0,1.8985,0.0010,408.26,0.39,120.6,35.2,138.20,23.79,24.62,36.32,0.04,-272.75,-272.75,-34,549,-911,17.1,22.7,-4.4,17.5,23.0,-3.9,5.73,2.38,-25.8,23.6
2013-06-07 00:09:00,0.0,1.8991,0.0010,408.06,0.43,125.0,37.2,138.20,23.79,24.62,36.32,0.04,-272.75,-272.76,-34,549,-911,17.1,22.6,-4.4,17.5,22.9,-3.9,5.73,2.34,-25.8,23.6
2013-06-07 00:10:00,0.0,1.8987,0.0009,408.08,0.39,131.2,44.8,138.19,23.79,24.62,36.33,0.04,-272.75,-272.75,-34,549,-911,17.1,22.6,-4.4,17.5,22.9,-3.9,5.73,2.36,-25.8,23.6
2013-06-07 00:11:00,0.0,1.8993,0.0010,408.06,0.44,120.7,41.8,138.20,23.79,24.61,36.32,0.04,-272.75,-272.76,-34,549,-912,17.1,22.5,-4.5,17.5,22.8,-4.0,5.73,2.41,-25.8,23.6
2013-06-07 00:12:00,0.0,1.8993,0.0008,408.04,0.42,128.5,41.2,138.19,23.80,24.62,36.33,0.04,-272.75,-272.75,-34,549,-911,17.1,22.5,-4.5,17.5,22.8,-4.0,5.73,2.43,-25.8,23.6
2013-06-07 00:13:00,0.0,1.8993,0.0010,407.98,0.43,129.1,37.5,138.20,23.81,24.62,36.34,0.04,-272.76,-272.76,-34,549,-911,17.1,22.5,-4.5,17.5,22.8,-4.0,5.73,2.40,-25.8,23.6
2013-06-07 00:14:00,0.0,1.8993,0.0011,408.13,0.41,121.3,39.2,138.20,23.81,24.62,36.32,0.04,-272.75,-272.75,-34,549,-911,17.1,22.5,-4.5,17.5,22.8,-4.0,5.73,2.35,-25.8,23.6
2013-06-07 00:15:00,0.0,1.8990,0.0009,408.00,0.36,116.7,42.5,138.19,23.82,24.62,36.33,0.04,-272.75,-272.76,-34,549,-911,17.1,22.6,-4.5,17.5,22.8,-4.0,5.73,2.34,-25.8,23.6
2013-06-07 00:16:00,0.0,1.8989,0.0009,408.06,0.35,131.9,40.5,138.20,23.82,24.62,36.33,0.04,-272.75,-272.76,-34,549,-911,17.1,22.6,-4.4,17.5,22.9,-3.9,5.73,2.39,-25.8,23.6
2013-06-07 00:17:00,0.0,1.8991,0.0009,408.04,0.32,124.4,34.3,138.20,23.81,24.62,36.33,0.04,-272.75,-272.75,-34,549,-911,17.1,22.6,-4.4,17.5,22.9,-3.9,5.73,2.44,-25.8,23.6
2013-06-07 00:18:00,0.0,1.8989,0.0010,408.05,0.42,121.4,32.0,138.19,23.82,24.62,36.33,0.04,-272.75,-272.75,-34,549,-912,17.1,22.6,-4.4,17.5,22.9,-3.9,5.73,2.41,-25.8,23.6
2013-06-07 00:19:00,0.0,1.8991,0.0010,407.91,0.43,120.8,38.1,138.19,23.82,24.62,36.34,0.04,-272.75,-272.75,-34,549,-911,17.1,22.6,-4.4,17.5,22.8,-3.9,5.73,2.36,-25.8,23.6
2013-06-07 00:20:00,0.0,1.8987,0.0008,408.00,0.44,134.2,43.5,138.20,23.82,24.62,36.32,0.04,-272.76,-272.75,-34,549,-912,17.2,22.6,-4.4,17.5,22.8,-3.9,5.73,2.34,-25.8,23.6
2013-06-07 00:21:00,0.0,1.8989,0.0012,408.03,0.40,114.1,44.5,138.19,23.82,24.61,36.32,0.04,-272.75,-272.75,-34,549,-911,17.1,22.7,-4.4,17.6,22.9,-3.9,5.73,2.38,-25.8,23.7
2013-06-07 00:22:00,0.0,1.8987,0.0008,407.94,0.48,117.3,48.2,138.19,23.82,24.62,36.33,0.04,-272.75,-272.75,-35,549,-911,17.1,22.6,-4.4,17.6,22.9,-3.9,5.73,2.44,-25.8,23.6
2013-06-07 00:23:00,0.0,1.8989,0.0009,407.92,0.44,123.0,38.9,138.19,23.83,24.62,36.33,0.04,-272.76,-272.76,-35,549,-911,17.2,22.7,-4.3,17.6,23.0,-3.8,5.73,2.43,-25.8,23.7
2013-06-07 00:24:00,0.0,1.8994,0.0010,408.02,0.49,140.6,39.0,138.20,23.84,24.62,36.33,0.23,-271.35,-270.88,-34,549,-911,17.2,22.8,-4.3,17.6,23.0,-3.8,5.42,2.46,-30.0,23.7
2013-06-07 00:25:00,0.0,1.8990,0.0008,407.88,0.38,130.6,40.2,138.19,23.85,24.62,36.33,0.04,-272.75,-272.75,-34,550,-912,17.2,22.8,-4.3,17.6,23.1,-3.8,5.73,2.34,-25.8,23.7
2013-06-07 00:26:00,0.0,1.8997,0.0010,408.07,0.37,133.2,38.6,138.19,23.85,24.62,36.32,0.04,-272.76,-272.76,-34,550,-911,17.2,22.8,-4.3,17.6,23.1,-3.8,5.73,2.37,-25.8,23.8
2013-06-07 00:27:00,0.0,1.9000,0.0009,408.08,0.40,139.6,36.4,138.20,23.86,24.62,36.33,0.04,-272.75,-272.76,-34,550,-912,17.2,22.6,-4.3,17.6,22.9,-3.8,5.73,2.43,-25.7,23.8
2013-06-07 00:28:00,0.0,1.9007,0.0010,408.18,0.39,132.9,33.9,138.19,23.87,24.62,36.32,0.04,-272.75,-272.76,-35,550,-911,17.2,22.8,-4.2,17.6,23.1,-3.7,5.73,2.43,-25.7,23.8
2013-06-07 00:29:00,0.0,1.9008,0.0009,408.12,0.42,142.1,41.3,138.19,23.87,24.61,36.33,0.04,-272.75,-272.76,-35,550,-912,17.2,22.7,-4.2,17.6,23.1,-3.7,5.73,2.37,-25.7,23.8
2013-06-07 00:30:00,0.0,1.9004,0.0010,408.24,0.41,141.3,30.2,138.20,23.88,24.62,36.32,0.04,-272.76,-272.76,-35,550,-911,17.3,22.7,-4.2,17.6,23.1,-3.7,5.73,2.33,-25.7,23.8
2013-06-07 00:31:00,0.0,1.9004,0.0009,408.11,0.43,140.1,40.8,138.19,23.89,24.62,36.32,0.04,-272.75,-272.75,-35,550,-911,17.3,22.7,-4.2,17.6,23.1,-3.7,5.73,2.37,-25.7,23.8
2013-06-07 00:32:00,0.0,1.9003,0.0008,408.11,0.41,135.6,35.6,138.19,23.89,24.62,36.32,0.04,-272.75,-272.75,-35,550,-912,17.3,22.8,-4.2,17.6,23.1,-3.7,5.73,2.42,-25.7,23.9
2013-06-07 00:33:00,0.0,1.9004,0.0009,408.18,0.32,144.7,32.0,138.19,23.90,24.62,36.32,0.04,-272.76,-272.76,-35,550,-911,17.3,22.8,-4.1,17.7,23.2,-3.6,5.73,2.43,-25.7,23.9
2013-06-07 00:34:00,0.0,1.9004,0.0009,408.21,0.36,135.8,38.9,138.19,23.91,24.62,36.32,0.04,-272.75,-272.76,-35,550,-912,17.4,23.0,-4.0,17.7,23.4,-3.5,5.73,2.37,-25.7,23.9
2013-06-07 00:35:00,0.0,1.9006,0.0009,408.22,0.41,135.8,36.8,138.19,23.91,24.61,36.33,0.04,-272.75,-272.75,-35,550,-911,17.4,23.4,-3.8,17.7,23.8,-3.2,5.73,2.35,-25.7,23.9
2013-06-07 00:36:00,0.0,1.9002,0.0010,408.19,0.34,123.9,35.0,138.19,23.91,24.61,36.32,0.04,-272.75,-272.75,-35,550,-912,17.4,22.9,-4.0,17.7,23.3,-3.5,5.73,2.37,-25.7,23.9
2013-06-07 00:37:00,0.0,1.8995,0.0010,408.36,0.52,141.4,38.3,138.19,23.91,24.62,36.31,0.04,-272.76,-272.76,-35,550,-911,17.4,22.7,-4.1,17.8,23.0,-3.6,5.73,2.43,-25.6,23.9
2013-06-07 00:38:00,0.0,1.9004,0.0009,408.26,0.43,131.1,42.3,138.19,23.91,24.62,36.31,0.04,-272.75,-272.76,-35,550,-911,17.4,22.8,-4.0,17.8,23.2,-3.5,5.73,2.43,-25.6,23.9
2013-06-07 00:39:00,0.0,1.9004,0.0009,408.17,0.30,118.3,36.2,138.19,23.91,24.62,36.31,0.04,-272.75,-272.75,-35,550,-911,17.4,22.8,-4.0,17.8,23.2,-3.5,5.73,2.39,-25.6,23.9
2013-06-07 00:40:00,0.0,1.9002,0.0009,408.21,0.45,127.3,45.8,138.19,23.92,24.61,36.32,0.04,-272.76,-272.76,-35,550,-911,17.5,22.8,-4.0,17.8,23.2,-3.5,5.73,2.34,-25.6,24.0
2013-06-07 00:41:00,0.0,1.9006,0.0010,408.13,0.39,132.3,47.1,138.19,23.92,24.62,36.32,0.04,-272.75,-272.76,-35,550,-911,17.5,22.7,-4.1,17.8,23.1,-3.5,5.73,2.36,-25.6,24.0
2013-06-07 00:42:00,0.0,1.9005,0.0009,408.22,0.39,134.5,37.6,138.19,23.93,24.62,36.31,0.04,-272.76,-272.75,-35,551,-911,17.5,22.5,-4.1,17.8,23.0,-3.6,5.73,2.41,-25.6,24.0
2013-06-07 00:43:00,0.0,1.9002,0.0009,408.17,0.33,134.1,31.0,138.19,23.94,24.62,36.32,0.04,-272.75,-272.75,-35,551,-912,17.6,22.6,-4.0,17.8,23.1,-3.5,5.73,2.44,-25.6,24.0
2013-06-07 00:44:00,0.0,1.9001,0.0009,408.18,0.37,137.8,39.2,138.19,23.94,24.62,36.31,0.04,-272.76,-272.75,-35,551,-911,17.6,22.5,-4.1,17.8,23.0,-3.6,5.73,2.39,-25.6,24.0
2013-06-07 00:45:00,0.0,1.9004,0.0009,408.06,0.37,127.5,37.9,138.19,23.95,24.62,36.32,0.04,-272.75,-272.75,-35,551,-912,17.6,22.5,-4.1,17.9,22.9,-3.6,5.73,2.34,-25.6,24.0
2013-06-07 00:46:00,0.0,1.9007,0.0011,408.15,0.38,137.7,38.4,138.19,23.95,24.61,36.32,0.04,-272.75,-272.76,-35,551,-911,17.6,22.4,-4.1,17.9,22.9,-3.6,5.73,2.35,-25.6,24.0
2013-06-07 00:47:00,0.0,1.8999,0.0010,408.09,0.44,127.8,42.9,138.19,23.95,24.62,36.32,0.04,-272.76,-272.75,-35,551,-912,17.6,22.5,-4.0,17.9,23.0,-3.5,5.73,2.41,-25.6,24.0
2013-06-07 00:48:00,0.0,1.8999,0.0009,408.15,0.51,127.5,38.8,138.19,23.95,24.61,36.32,0.04,-272.75,-272.75,-35,551,-911,17.6,22.4,-4.1,17.9,22.9,-3.6,5.73,2.43,-25.5,24.0
2013-06-07 00:49:00,0.0,1.8999,0.0008,408.18,0.41,128.5,39.4,138.19,23.96,24.61,36.31,0.04,-272.75,-272.75,-35,551,-911,17.7,22.3,-4.2,17.9,22.7,-3.7,5.73,2.38,-25.6,24.0
2013-06-07 00:50:00,0.0,1.8994,0.0009,408.11,0.42,137.7,41.5,138.19,23.96,24.62,36.31,0.04,-272.76,-272.76,-35,551,-911,17.7,22.5,-4.0,18.0,23.0,-3.5,5.73,2.34,-25.6,24.0
2013-06-07 00:51:00,0.0,1.8996,0.0010,408.05,0.37,138.2,39.5,138.19,23.97,24.62,36.32,0.04,-272.75,-272.75,-35,551,-911,17.7,22.6,-3.9,18.0,23.1,-3.4,5.73,2.36,-25.5,24.0
2013-06-07 00:52:00,0.0,1.8993,0.0010,408.09,0.40,137.1,39.8,138.19,23.98,24.62,36.32,0.04,-272.75,-272.75,-35,551,-912,17.7,22.5,-4.0,18.0,23.0,-3.5,5.73,2.42,-25.5,24.0
2013-06-07 00:53:00,0.0,1.8992,0.0008,408.12,0.42,142.5,39.5,138.19,23.99,24.62,36.31,0.04,-272.75,-272.76,-35,551,-911,17.7,22.4,-4.1,18.0,22.8,-3.6,5.73,2.43,-25.5,24.1
2013-06-07 00:54:00,0.0,1.8997,0.0010,408.03,0.44,141.4,36.9,138.19,24.00,24.62,36.32,0.04,-272.75,-272.76,-35,551,-912,17.8,22.3,-4.1,18.0,22.8,-3.6,5.73,2.38,-25.5,24.1
2013-06-07 00:55:00,0.0,1.8996,0.0008,408.20,0.36,147.4,48.0,138.19,24.00,24.62,36.31,0.04,-272.75,-272.75,-35,551,-911,17.8,22.3,-4.1,18.0,22.7,-3.6,5.73,2.33,-25.5,24.1
2013-06-07 00:56:00,0.0,1.8995,0.0009,408.15,0.38,146.8,39.0,138.19,24.01,24.62,36.31,0.04,-272.75,-272.76,-35,551,-912,17.8,22.3,-4.1,18.0,22.7,-3.6,5.73,2.37,-25.5,24.1
2013-06-07 00:57:00,0.0,1.8997,0.0009,408.19,0.44,145.4,43.5,138.19,24.02,24.62,36.31,0.04,-272.76,-272.75,-35,552,-912,17.8,22.2,-4.1,18.1,22.7,-3.6,5.73,2.43,-25.5,24.1
2013-06-07 00:58:00,0.0,1.8996,0.0009,408.13,0.35,146.1,35.3,138.19,24.03,24.62,36.31,0.04,-272.76,-272.76,-35,552,-912,17.8,22.1,-4.1,18.1,22.6,-3.6,5.73,2.41,-25.5,24.1
2013-06-07 00:59:00,0.0,1.9000,0.0011,408.15,0.40,143.9,41.4,138.19,24.03,24.62,36.31,0.04,-272.75,-272.75,-35,552,-911,17.8,22.0,-4.2,18.1,22.5,-3.6,5.73,2.35,-25.5,24.1
2013-06-07 01:00:00,0.0,1.8999,0.0010,408.32,0.38,141.0,38.8,138.19,24.03,24.62,36.31,0.04,-272.76,-272.76,-35,552,-912,17.9,22.2,-4.1,18.1,22.6,-3.6,5.73,2.34,-25.5,24.1
2013-06-07 01:01:00,0.0,1.8998,0.0008,408.23,0.43,139.2,33.0,138.19,24.03,24.62,36.30,0.04,-272.76,-272.75,-35,552,-911,17.9,22.0,-4.1,18.1,22.5,-3.7,5.73,2.40,-25.5,24.1
2013-06-07 01:02:00,0.0,1.8999,0.0008,408.19,0.43,147.0,47.3,138.19,24.04,24.61,36.31,0.04,-272.75,-272.75,-35,552,-912,17.9,21.8,-4.2,18.1,22.3,-3.7,5.73,2.43,-25.4,24.1
2013-06-07 01:03:00,0.0,1.9005,0.0009,408.20,0.41,136.8,41.8,138.19,24.05,24.61,36.32,0.04,-272.75,-272.75,-35,552,-912,17.9,21.9,-4.2,18.2,22.4,-3.7,5.73,2.39,-25.4,24.2
2013-06-07 01:04:00,0.0,1.8998,0.0010,408.06,0.36,147.1,35.5,138.19,24.05,24.62,36.31,0.04,-272.75,-272.76,-35,552,-912,18.0,21.8,-4.2,18.2,22.3,-3.7,5.73,2.34,-25.4,24.2
2013-06-07 01:05:00,0.0,1.9004,0.0008,408.26,0.42,137.5,46.5,138.19,24.05,24.62,36.31,0.04,-272.75,-272.75,-35,552,-912,18.0,21.7,-4.2,18.2,22.2,-3.7,5.73,2.34,-25.4,24.2
2013-06-07 01:06:00,0.0,1.9007,0.0010,408.23,0.44,148.6,35.9,138.19,24.06,24.62,36.32,0.04,-272.75,-272.76,-35,552,-912,18.0,21.7,-4.2,18.2,22.2,-3.7,5.73,2.41,-25.4,24.2
2013-06-07 01:07:00,0.0,1.9009,0.0010,408.28,0.39,141.3,38.4,138.19,24.07,24.61,36.31,0.04,-272.76,-272.76,-35,552,-912,18.0,21.9,-4.1,18.2,22.4,-3.6,5.73,2.43,-25.4,24.2
2013-06-07 01:08:00,0.0,1.9010,0.0008,408.13,0.44,146.5,41.2,138.19,24.08,24.61,36.32,0.04,-272.75,-272.75,-35,552,-912,18.0,21.7,-4.2,18.2,22.2,-3.7,5.73,2.38,-25.4,24.2
2013-06-07 01:09:00,0.0,1.9005,0.0010,408.24,0.38,141.4,38.7,138.19,24.08,24.62,36.31,0.04,-272.76,-272.75,-35,552,-911,18.0,21.7,-4.2,18.3,22.2,-3.7,5.73,2.33,-25.4,24.2
2013-06-07 01:10:00,0.0,1.9004,0.0010,408.17,0.33,140.5,37.9,138.19,24.09,24.62,36.31,0.04,-272.75,-272.76,-35,552,-912,18.1,21.6,-4.2,18.3,22.1,-3.7,5.73,2.37,-25.4,24.2
2013-06-07 01:11:00,0.0,1.9002,0.0009,408.34,0.43,151.6,32.6,138.19,24.10,24.62,36.31,0.04,-272.76,-272.75,-35,552,-911,18.1,21.6,-4.2,18.3,22.1,-3.7,5.73,2.43,-25.4,24.2
2013-06-07 01:12:00,0.0,1.9000,0.0009,408.18,0.41,146.1,39.4,138.19,24.11,24.62,36.31,0.04,-272.75,-272.75,-35,553,-912,18.1,21.8,-4.1,18.3,22.3,-3.6,5.73,2.41,-25.4,24.2
2013-06-07 01:13:00,0.0,1.9003,0.0009,408.24,0.42,146.0,35.3,138.19,24.11,24.62,36.31,0.04,-272.75,-272.75,-35,553,-912,18.1,21.9,-4.0,18.3,22.4,-3.6,5.73,2.34,-25.3,24.2
2013-06-07 01:14:00,0.0,1.8998,0.0009,408.35,0.41,138.6,37.3,138.19,24.12,24.62,36.31,0.04,-272.75,-272.76,-35,553,-912,18.1,21.7,-4.1,18.3,22.2,-3.7,5.73,2.34,-25.4,24.2
2013-06-07 01:15:00,0.0,1.9003,0.0010,408.30,0.38,144.9,39.4,138.19,24.13,24.62,36.31,0.04,-272.75,-272.76,-36,553,-912,18.1,21.7,-4.1,18.3,22.2,-3.7,5.73,2.42,-25.3,24.2
2013-06-07 01:16:00,0.0,1.9002,0.0009,408.33,0.30,139.5,40.5,138.19,24.14,24.62,36.31,0.04,-272.75,-272.75,-36,553,-912,18.1,21.6,-4.2,18.3,22.0,-3.7,5.73,2.42,-25.3,24.3
2013-06-07 01:17:00,0.0,1.9001,0.0009,408.39,0.39,148.7,37.7,138.19,24.15,24.62,36.31,0.04,-272.76,-272.76,-35,553,-912,18.2,21.6,-4.2,18.4,22.0,-3.7,5.73,2.35,-25.3,24.3
2013-06-07 01:18:00,0.0,1.9002,0.0009,408.39,0.36,141.2,36.7,138.19,24.15,24.62,36.31,0.04,-272.75,-272.76,-35,553,-912,18.1,21.6,-4.2,18.4,22.0,-3.7,5.73,2.33,-25.3,24.3
2013-06-07 01:19:00,0.0,1.9001,0.0010,408.38,0.35,143.3,40.7,138.18,24.16,24.62,36.31,0.04,-272.75,-272.76,-35,553,-912,18.2,21.6,-4.2,18.4,22.0,-3.7,5.73,2.41,-25.3,24.3
2013-06-07 01:20:00,0.0,1.9000,0.0008,408.38,0.38,158.3,39.4,138.18,24.17,24.62,36.30,0.04,-272.75,-272.76,-36,553,-912,18.2,21.7,-4.1,18.4,22.2,-3.6,5.73,2.43,-25.3,24.3
2013-06-07 01:21:00,0.0,1.9001,0.0009,408.31,0.37,148.9,32.9,138.19,24.17,24.62,36.31,0.04,-272.75,-272.76,-36,553,-912,18.2,21.7,-4.1,18.4,22.1,-3.6,5.73,2.37,-25.3,24.4
2013-06-07 01:22:00,0.0,1.9002,0.0010,408.37,0.39,147.2,36.4,138.19,24.17,24.62,36.31,0.04,-272.76,-272.76,-36,553,-912,18.2,21.6,-4.1,18.4,22.1,-3.6,5.73,2.32,-25.3,24.3
2013-06-07 01:23:00,0.0,1.9003,0.0009,408.36,0.31,155.6,39.4,138.18,24.17,24.62,36.30,0.04,-272.76,-272.76,-35,553,-912,18.2,21.4,-4.2,18.4,21.9,-3.7,5.73,2.39,-25.3,24.4
2013-06-07 01:24:00,0.0,1.9001,0.0009,408.26,0.36,153.9,35.7,138.19,24.17,24.62,36.31,0.04,-272.75,-272.76,-35,553,-912,18.2,21.2,-4.3,18.4,21.7,-3.8,5.73,2.43,-25.3,24.4
2013-06-07 01:25:00,0.0,1.8997,0.0008,408.25,0.39,145.3,44.3,138.18,24.17,24.62,36.31,0.04,-272.76,-272.75,-36,553,-912,18.2,21.4,-4.2,18.5,21.9,-3.7,5.73,2.38,-25.3,24.4
2013-06-07 01:26:00,0.0,1.8997,0.0011,408.20,0.40,146.3,34.0,138.19,24.18,24.62,36.31,0.04,-272.76,-272.76,-36,553,-912,18.3,21.5,-4.1,18.5,22.0,-3.6,5.73,2.32,-25.3,24.3
2013-06-07 01:27:00,0.0,1.9002,0.0009,408.18,0.47,143.9,43.5,138.18,24.19,24.62,36.31,0.04,-272.76,-272.76,-36,554,-912,18.3,21.5,-4.1,18.5,21.9,-3.6,5.73,2.38,-25.3,24.4
2013-06-07 01:28:00,0.0,1.9003,0.0008,408.23,0.40,153.0,39.4,138.18,24.19,24.61,36.31,0.04,-272.75,-272.76,-36,554,-912,18.3,21.5,-4.1,18.5,22.0,-3.6,5.73,2.43,-25.3,24.4
2013-06-07 01:29:00,0.0,1.9002,0.0009,408.20,0.34,156.2,38.0,138.19,24.20,24.62,36.31,0.04,-272.75,-272.76,-36,554,-912,18.3,21.5,-4.1,18.5,22.0,-3.6,5.73,2.38,-25.2,24.4
2013-06-07 01:30:00,0.0,1.8999,0.0009,408.22,0.45,147.5,35.3,138.18,24.20,24.62,36.31,0.04,-272.76,-272.76,-36,554,-912,18.3,21.4,-4.1,18.5,21.9,-3.6,5.73,2.32,-25.2,24.4
2013-06-07 01:31:00,0.0,1.9002,0.0008,408.03,0.41,143.7,34.0,138.18,24.21,24.61,36.31,0.04,-272.75,-272.76,-36,554,-912,18.3,21.4,-4.1,18.6,21.9,-3.6,5.73,2.37,-25.2,24.4
2013-06-07 01:32:00,0.0,1.9000,0.0010,408.05,0.41,156.8,45.8,138.19,24.22,24.62,36.31,0.04,-272.75,-272.75,-36,554,-912,18.4,21.7,-4.0,18.6,22.1,-3.5,5.73,2.43,-25.2,24.4
2013-06-07 01:33:00,0.0,1.9001,0.0007,408.27,0.41,153.2,34.3,138.18,24.23,24.62,36.30,0.04,-272.75,-272.75,-36,554,-912,18.4,21.5,-4.1,18.6,22.0,-3.6,5.73,2.40,-25.2,24.4
2013-06-07 01:34:00,0.0,1.9003,0.0009,408.18,0.38,161.5,40.4,138.19,24.23,24.62,36.31,0.04,-272.76,-272.76,-36,554,-912,18.4,21.4,-4.1,18.6,21.9,-3.6,5.73,2.33,-25.2,24.4
2013-06-07 01:35:00,0.0,1.9003,0.0012,408.20,0.38,154.7,40.4,138.18,24.23,24.61,36.31,0.04,-272.75,-272.76,-36,554,-912,18.4,21.5,-4.1,18.6,21.9,-3.6,5.73,2.36,-25.2,24.4
2013-06-07 01:36:00,0.0,1.9002,0.0009,408.21,0.37,158.1,41.2,138.18,24.24,24.62,36.31,0.04,-272.76,-272.76,-36,554,-912,18.4,21.4,-4.1,18.6,21.8,-3.6,5.73,2.43,-25.2,24.5
2013-06-07 01:37:00,0.0,1.9001,0.0010,408.16,0.35,152.0,30.9,138.18,24.24,24.62,36.30,0.04,-272.76,-272.76,-36,554,-912,18.4,21.4,-4.1,18.6,21.8,-3.6,5.73,2.40,-25.2,24.5
2013-06-07 01:38:00,0.0,1.9004,0.0010,408.13,0.40,159.3,33.3,138.18,24.24,24.62,36.31,0.04,-272.76,-272.76,-36,554,-912,18.4,21.5,-4.0,18.6,22.0,-3.5,5.73,2.32,-25.2,24.5
2013-06-07 01:39:00,0.0,1.9000,0.0009,408.06,0.39,148.2,40.6,138.18,24.25,24.62,36.31,0.04,-272.75,-272.76,-36,554,-912,18.4,21.2,-4.2,18.6,21.6,-3.7,5.73,2.35,-25.2,24.5
2013-06-07 01:40:00,0.0,1.8999,0.0009,408.07,0.37,146.9,42.1,138.18,24.26,24.62,36.30,0.04,-272.76,-272.76,-36,554,-912,18.4,21.0,-4.3,18.6,21.5,-3.8,5.73,2.42,-25.2,24.5
2013-06-07 01:41:00,0.0,1.8999,0.0008,408.13,0.42,164.0,36.5,138.18,24.27,24.62,36.31,0.04,-272.76,-272.76,-36,554,-912,18.4,21.0,-4.3,18.6,21.5,-3.8,5.73,2.42,-25.2,24.5
2013-06-07 01:42:00,0.0,1.8997,0.0009,408.11,0.36,151.7,36.0,138.18,24.28,24.62,36.31,0.04,-272.76,-272.76,-36,554,-912,18.4,21.1,-4.2,18.6,21.5,-3.8,5.73,2.34,-25.2,24.5
2013-06-07 01:43:00,0.0,1.8993,0.0009,408.21,0.36,146.7,36.8,138.18,24.29,24.62,36.30,0.04,-272.76,-272.75,-36,554,-912,18.4,21.2,-4.2,18.7,21.7,-3.7,5.73,2.33,-25.2,24.5
2013-06-07 01:44:00,0.0,1.8993,0.0009,408.18,0.36,159.6,39.7,138.18,24.30,24.62,36.31,0.04,-272.76,-272.76,-36,554,-912,18.4,21.2,-4.1,18.7,21.7,-3.7,5.73,2.41,-25.2,24.6
2013-06-07 01:45:00,0.0,1.8994,0.0008,408.18,0.36,164.3,41.9,138.18,24.31,24.62,36.30,0.04,-272.76,-272.76,-36,554,-912,18.4,21.2,-4.2,18.7,21.7,-3.7,5.73,2.43,-25.2,24.6
2013-06-07 01:46:00,0.0,1.8996,0.0009,408.08,0.37,144.9,32.8,138.18,24.31,24.62,36.31,0.04,-272.75,-272.75,-36,554,-912,18.4,21.0,-4.3,18.7,21.4,-3.8,5.73,2.35,-25.2,24.5
2013-06-07 01:47:00,0.0,1.8999,0.0007,408.15,0.39,159.5,35.2,138.18,24.32,24.61,36.31,0.04,-272.75,-272.76,-36,554,-912,18.4,21.2,-4.2,18.7,21.6,-3.7,5.73,2.33,-25.1,24.6
2013-06-07 01:48:00,0.0,1.8992,0.0010,408.21,0.40,156.5,40.2,138.18,24.33,24.62,36.30,0.04,-272.76,-272.76,-36,554,-912,18.5,21.2,-4.1,18.7,21.6,-3.7,5.73,2.40,-25.1,24.5
2013-06-07 01:49:00,0.0,1.8994,0.0009,408.25,0.35,167.4,38.4,138.18,24.34,24.62,36.29,0.04,-272.75,-272.76,-36,554,-912,18.5,21.2,-4.1,18.7,21.7,-3.7,5.73,2.43,-25.1,24.5
2013-06-07 01:50:00,0.0,1.8993,0.0010,408.19,0.35,164.4,39.9,138.18,24.35,24.62,36.30,0.04,-272.75,-272.75,-36,555,-912,18.5,20.9,-4.3,18.7,21.3,-3.9,5.73,2.36,-25.1,24.6
2013-06-07 01:51:00,0.0,1.8989,0.0008,408.00,0.33,166.5,40.7,138.18,24.36,24.62,36.31,0.04,-272.76,-272.76,-36,555,-912,18.5,20.7,-4.4,18.7,21.1,-4.0,5.73,2.32,-25.1,24.6
2013-06-07 01:52:00,0.0,1.8990,0.0008,408.06,0.33,169.5,33.4,138.18,24.37,24.62,36.31,0.04,-272.76,-272.76,-36,555,-912,18.5,20.4,-4.6,18.7,20.9,-4.1,5.73,2.39,-25.1,24.6
2013-06-07 01:53:00,0.0,1.8996,0.0010,407.97,0.40,162.5,40.4,138.18,24.37,24.62,36.31,0.04,-272.75,-272.75,-36,555,-912,18.5,20.5,-4.5,18.8,20.9,-4.1,5.73,2.43,-25.1,24.6
2013-06-07 01:54:00,0.0,1.8998,0.0008,408.07,0.38,163.2,32.8,138.18,24.37,24.62,36.31,0.04,-272.76,-272.76,-36,555,-912,18.5,20.6,-4.4,18.8,21.1,-4.0,5.73,2.36,-25.1,24.6
2013-06-07 01:55:00,0.0,1.8994,0.0008,408.18,0.39,155.0,38.4,138.18,24.37,24.62,36.30,0.04,-272.76,-272.76,-36,555,-912,18.5,20.9,-4.3,18.8,21.3,-3.8,5.73,2.32,-25.1,24.7
2013-06-07 01:56:00,0.0,1.8996,0.0010,408.06,0.34,171.4,35.7,138.18,24.37,24.62,36.31,0.04,-272.75,-272.76,-36,555,-912,18.6,20.6,-4.4,18.8,21.0,-4.0,5.73,2.39,-25.1,24.7
2013-06-07 01:57:00,0.0,1.8994,0.0010,407.95,0.47,168.2,39.3,138.18,24.38,24.62,36.31,0.04,-272.75,-272.76,-36,555,-912,18.6,20.7,-4.4,18.8,21.1,-4.0,5.73,2.43,-25.1,24.7
2013-06-07 01:58:00,0.0,1.8995,0.0009,407.96,0.38,161.6,36.9,138.18,24.39,24.61,36.31,0.04,-272.75,-272.76,-36,555,-912,18.6,20.6,-4.4,18.8,21.1,-4.0,5.73,2.36,-25.1,24.6
2013-06-07 01:59:00,0.0,1.8994,0.0008,408.00,0.39,166.6,37.5,138.18,24.40,24.62,36.30,0.04,-272.76,-272.76,-36,555,-912,18.6,20.7,-4.4,18.8,21.1,-3.9,5.73,2.32,-25.1,24.6
2013-06-07 02:00:00,0.0,1.8992,0.0009,408.06,0.40,160.4,36.5,138.18,24.40,24.62,36.30,0.04,-272.75,-272.76,-36,555,-912,18.6,20.8,-4.3,18.8,21.2,-3.9,5.73,2.39,-25.1,24.7
2013-06-07 02:01:00,0.0,1.8990,0.0010,408.07,0.32,160.7,39.4,138.18,24.41,24.62,36.30,0.04,-272.75,-272.76,-36,555,-912,18.6,20.7,-4.4,18.8,21.1,-3.9,5.73,2.43,-25.1,24.6
2013-06-07 02:02:00,0.0,1.8994,0.0008,408.08,0.39,160.5,32.5,138.18,24.42,24.61,36.31,0.04,-272.75,-272.75,-36,555,-912,18.6,20.5,-4.5,18.8,21.0,-4.0,5.73,2.36,-25.1,24.7
2013-06-07 02:03:00,0.0,1.8991,0.0010,408.08,0.36,169.5,32.3,138.18,24.43,24.62,36.30,0.04,-272.76,-272.76,-36,555,-912,18.6,20.9,-4.3,18.8,21.2,-3.8,5.73,2.32,-25.1,24.7
2013-06-07 02:04:00,0.0,1.8991,0.0009,408.09,0.35,162.6,40.4,138.18,24.44,24.62,36.30,0.04,-272.76,-272.75,-36,555,-912,18.6,20.9,-4.2,18.8,21.3,-3.8,5.73,2.40,-25.0,24.7
2013-06-07 02:05:00,0.0,1.8993,0.0009,408.14,0.39,184.5,38.7,138.18,24.44,24.62,36.30,0.04,-272.75,-272.76,-36,555,-912,18.6,20.9,-4.2,18.8,21.3,-3.8,5.73,2.43,-25.0,24.7
2013-06-07 02:06:00,0.0,1.8993,0.0009,408.03,0.36,165.4,41.2,138.18,24.44,24.62,36.31,0.04,-272.75,-272.75,-36,555,-912,18.6,21.0,-4.1,18.9,21.5,-3.6,5.73,2.35,-25.0,24.7
2013-06-07 02:07:00,0.0,1.8990,0.0009,408.13,0.28,156.6,34.7,138.18,24.45,24.62,36.30,0.04,-272.75,-272.76,-36,555,-912,18.6,20.8,-4.3,18.9,21.2,-3.8,5.73,2.33,-25.0,24.7
2013-06-07 02:08:00,0.0,1.8988,0.0008,408.16,0.37,164.0,35.4,138.18,24.46,24.62,36.30,0.04,-272.76,-272.76,-36,555,-912,18.6,20.7,-4.3,18.9,21.2,-3.8,5.73,2.42,-25.0,24.7
2013-06-07 02:09:00,0.0,1.8989,0.0010,408.14,0.30,163.5,39.7,138.18,24.47,24.62,36.30,0.04,-272.75,-272.76,-36,555,-912,18.6,20.8,-4.2,18.9,21.2,-3.8,5.73,2.42,-25.0,24.7
2013-06-07 02:10:00,0.0,1.8992,0.0010,408.08,0.36,165.7,41.4,138.18,24.48,24.62,36.30,0.04,-272.75,-272.76,-36,555,-912,18.7,21.0,-4.1,18.9,21.4,-3.7,5.73,2.33,-25.0,24.7
2013-06-07 02:11:00,0.0,1.8994,0.0010,408.08,0.40,173.4,42.4,138.18,24.48,24.62,36.31,0.04,-272.76,-272.76,-36,555,-912,18.7,20.8,-4.2,18.9,21.2,-3.8,5.73,2.34,-25.0,24.7
2013-06-07 02:12:00,0.0,1.8994,0.0008,408.09,0.34,174.2,28.8,138.18,24.48,24.62,36.30,0.04,-272.75,-272.76,-36,555,-912,18.7,20.8,-4.2,18.9,21.2,-3.8,5.73,2.43,-25.0,24.7
2013-06-07 02:13:00,0.0,1.8985,0.0009,408.15,0.43,163.0,37.6,138.18,24.49,24.62,36.30,0.04,-272.76,-272.75,-36,555,-912,18.7,20.9,-4.2,18.9,21.3,-3.7,5.73,2.40,-25.0,24.7
2013-06-07 02:14:00,0.0,1.8989,0.0008,408.14,0.31,168.0,36.0,138.18,24.50,24.62,36.31,0.04,-272.75,-272.76,-36,555,-912,18.7,20.9,-4.1,18.9,21.3,-3.7,5.73,2.32,-25.0,24.8
2013-06-07 02:15:00,0.0,1.8990,0.0009,408.17,0.36,170.7,33.5,138.18,24.51,24.62,36.30,0.04,-272.75,-272.76,-36,555,-912,18.7,21.1,-4.0,18.9,21.5,-3.6,5.73,2.36,-25.0,24.8
2013-06-07 02:16:00,0.0,1.8985,0.0009,408.25,0.36,173.0,37.9,138.18,24.52,24.62,36.30,0.04,-272.76,-272.76,-36,555,-912,18.7,20.7,-4.2,19.0,21.2,-3.8,5.73,2.44,-25.0,24.8